Omaha, NE

11:35 AM CST on February 24, 2017 (GMT -0600)
Eppley Airfield

Weather History for KOMA - September, 2011

Change the Weather History Date:

Friday, September 16, 2011

  Actual Average Record
Temperature  
Mean Temperature 51 °F 66 °F  
Max Temperature 54 °F 78 °F 97 °F (1931)
Min Temperature 48 °F 54 °F 36 °F (1903)
Degree Days  
Heating Degree Days 14 3  
Month to date heating degree days 46 26  
Since 1 July heating degree days 46 34  
Cooling Degree Days 0 4  
Month to date cooling degree days 79 85  
Year to date cooling degree days 1327 1065  
Growing Degree Days 1 (Base 50)    
Moisture  
Dew Point 46 °F    
Average Humidity 79    
Maximum Humidity 86    
Minimum Humidity 71    
Precipitation  
Precipitation 0.06 in 0.08 in 2.06 in (1968)
Month to date precipitation 0.61 1.53  
Year to date precipitation 24.91 24.64  
Snow  
Snow 0.00 in 0.00 in - ()
Month to date snowfall 0.0 0.0  
Since 1 July snowfall 0.0 0.0  
Snow Depth 0.00 in    
Sea Level Pressure  
Sea Level Pressure 30.22 in    
Wind  
Wind Speed 11 mph (SE)    
Max Wind Speed 17 mph    
Max Gust Speed 21 mph    
Visibility 10 miles    
Events Rain    
T = Trace of Precipitation, MM = Missing Value Source: NWS Daily Summary

Daily Weather History Graph

Daily Weather History Graph

Search for Another Location

Airport or City:

Trip Planner

Search our weather history database for the weather conditions in past years. The results will help you decide how hot, cold, wet, or windy it might be!

Date:

Astronomy

Sep. 16, 2011 Rise Set
Actual Time 7:04 AM CDT 7:31 PM CDT
Civil Twilight 6:37 AM CDT 7:59 PM CDT
Nautical Twilight 6:04 AM CDT 8:31 PM CDT
Astronomical Twilight 5:30 AM CDT 9:05 PM CDT
Moon 9:18 PM CDT (9/16) 11:14 AM CDT (9/16)
Length of Visible Light 13h 22m
Length of Day
12h 26m
Waning Gibbous, 84% of the Moon is Illuminated
Sep 16
Waning Gibbous
Sep 20
Last Quarter
Sep 27
New
Oct 3
First Quarter
Oct 11
Full

Hourly Weather History & Observations

Time (CDT) Temp. Dew Point Humidity Pressure Visibility Wind Dir Wind Speed Gust Speed Precip Events Conditions
12:52 AM 50.0 °F 42.1 °F 74% 30.28 in 10.0 mi SE 6.9 mph - 0.01 in   Overcast
1:52 AM 50.0 °F 42.1 °F 74% 30.28 in 10.0 mi SE 3.5 mph - 0.00 in Rain Light Rain
2:52 AM 50.0 °F 44.1 °F 80% 30.28 in 10.0 mi SE 3.5 mph - 0.02 in Rain Light Rain
3:52 AM 48.9 °F 44.1 °F 83% 30.28 in 10.0 mi East 3.5 mph - 0.02 in Rain Light Rain
4:52 AM 48.9 °F 44.1 °F 83% 30.28 in 10.0 mi ESE 6.9 mph - 0.00 in   Overcast
5:52 AM 48.0 °F 45.0 °F 89% 30.27 in 10.0 mi ESE 5.8 mph - 0.02 in Rain Light Rain
6:52 AM 48.0 °F 44.1 °F 86% 30.27 in 10.0 mi ESE 6.9 mph - 0.00 in   Overcast
7:52 AM 48.0 °F 43.0 °F 83% 30.27 in 10.0 mi ESE 6.9 mph - N/A   Overcast
8:52 AM 48.2 °F 42.8 °F 82% 30.26 in 10.0 mi ESE 10.4 mph - N/A   Overcast
9:52 AM 48.9 °F 43.0 °F 80% 30.27 in 10.0 mi SE 10.4 mph - N/A   Overcast
10:52 AM 51.1 °F 45.0 °F 80% 30.26 in 10.0 mi SE 11.5 mph - N/A   Overcast
11:40 AM 51.8 °F 44.6 °F 76% 30.24 in 10.0 mi SE 13.8 mph - N/A   Overcast
11:52 AM 52.0 °F 45.0 °F 77% 30.24 in 10.0 mi SE 10.4 mph - N/A   Overcast
12:52 PM 53.1 °F 44.1 °F 71% 30.23 in 10.0 mi SE 13.8 mph - N/A   Overcast
1:52 PM 52.0 °F 46.0 °F 80% 30.21 in 10.0 mi SSE 13.8 mph - N/A   Overcast
2:52 PM 53.6 °F 46.4 °F 77% 30.19 in 10.0 mi SE 11.5 mph - N/A   Overcast
3:52 PM 53.1 °F 46.9 °F 80% 30.18 in 10.0 mi SE 12.7 mph - N/A   Overcast
4:52 PM 53.1 °F 46.9 °F 80% 30.17 in 10.0 mi ESE 6.9 mph - N/A   Overcast
5:52 PM 54.0 °F 46.9 °F 77% 30.16 in 10.0 mi ESE 8.1 mph - N/A   Overcast
6:52 PM 54.0 °F 46.9 °F 77% 30.15 in 10.0 mi ESE 12.7 mph - N/A   Overcast
7:52 PM 54.0 °F 46.9 °F 77% 30.15 in 10.0 mi ESE 15.0 mph - N/A   Overcast
8:52 PM 53.1 °F 48.0 °F 83% 30.17 in 10.0 mi SE 15.0 mph - N/A   Overcast
9:52 PM 53.1 °F 48.0 °F 83% 30.17 in 10.0 mi SE 12.7 mph - N/A   Overcast
10:37 PM 53.6 °F 48.2 °F 82% 30.17 in 10.0 mi SE 12.7 mph - N/A   Overcast
10:52 PM 53.1 °F 48.0 °F 83% 30.18 in 10.0 mi SE 12.7 mph - N/A   Overcast
11:39 PM 53.6 °F 48.2 °F 82% 30.17 in 10.0 mi SE 13.8 mph - N/A   Overcast
11:52 PM 53.1 °F 48.9 °F 86% 30.17 in 10.0 mi SE 10.4 mph - N/A   Overcast